Tracking 20710 objects as of 30-May-2020
HD Live streaming from Space Station
objects crossing your sky now

FENGYUN 1C DEB

Track FENGYUN 1C DEB now!
10-day predictions


NORAD ID: 36733
Int'l Code: 1999-025EBF
Perigee: 813.2 km
Apogee: 1,036.8 km
Inclination: 99.2 °
Period: 103.4 minutes
Semi major axis: 7295 km
RCS: 0.0043 m2 (small)
Launch date: May 10, 1999
Source: People's Republic of China (PRC)
Launch site: Taiyaun Space Center, China (TSC)

Note: This is SATELLITE DEBRIS
aabbcc
Your satellite tracking list
Your tracking list is empty




NASA's NSSDC Master Catalog

Two Line Element Set (TLE):
1 36733U 99025EBF 20150.77064196  .00000502  00000-0  38216-3 0  9995
2 36733  99.2187  89.9015 0153242 255.5117 102.8999 13.93082081543291
Source of the keplerian elements: AFSPC